Location: St. Andrews
(45.0670°N, 67.0330°W)
Time: 06:10:36
(UTC-03:00)

Amateur Radio Satellites - All Passes

Search period start: 27 April 2017 05:40
Search period end: 28 April 2017 05:40
Location: St. Andrews, 45.0670°N, 67.0330°W

Satellite Date Start Highest point End Downlink Frequencies (MHz)
Time Altitude Azimuth
STARS 27 Apr 05:49:45 05:54:10 84° 257° (WSW) 05:58:36 437.465
SO-50 27 Apr 05:59:30 06:00:58 11° 108° (ESE) 06:02:25 436.795
CUBESAT XI-V 27 Apr 06:01:14 06:05:28 34° 264° (W) 06:09:44 437.345
ITAMSAT 1 27 Apr 06:21:05 06:25:00 22° 299° (WNW) 06:28:56 435.822/435.867
STRAND 1 27 Apr 06:45:36 06:49:22 21° 61° (ENE) 06:53:09 437.568
M-CUBED/EXP-1 PRIME 27 Apr 06:46:14 06:50:04 26° 60° (ENE) 06:53:54 437.505
XW-2F 27 Apr 06:46:15 06:48:42 16° 92° (E) 06:51:08 145.980 - 146.000
AO-7 27 Apr 06:53:37 07:00:54 36° 304° (NW) 07:08:12 .
NUDT-PHONESAT 27 Apr 06:56:31 06:59:01 17° 92° (E) 07:01:32 437.300
YUBILEINY 27 Apr 07:09:16 07:16:31 29° 296° (WNW) 07:23:51 435.215
CUTE-I 27 Apr 07:30:35 07:35:43 47° 99° (E) 07:40:48 437.470
DOVE 4 27 Apr 07:32:42 07:37:23 89° 74° (ENE) 07:41:47 437.250
XW-2D 27 Apr 07:35:09 07:38:58 65° 101° (E) 07:42:46 145.860 - 145.880
SO-50 27 Apr 07:36:06 07:40:43 89° 111° (ESE) 07:45:19 436.795
HO-68 27 Apr 07:36:48 07:41:22 18° 88° (E) 07:45:54 435.675
XW-2B 27 Apr 07:42:06 07:45:56 77° 102° (ESE) 07:49:45 145.730 - 145.750
RS-15 27 Apr 07:42:27 07:53:52 53° 111° (ESE) 08:05:35 29.354- 29.394
KAITUO 1B 27 Apr 07:50:41 07:54:28 78° 101° (ESE) 07:58:15 145.475/437.950
LilacSat-2 27 Apr 07:53:36 07:57:27 74° 283° (WNW) 08:01:16 437.200
XW-2C 27 Apr 07:54:03 07:57:52 76° 285° (WNW) 08:01:41 145.795 - 145.815
XW-2F 27 Apr 08:19:27 08:23:00 39° 289° (WNW) 08:26:34 145.980 - 146.000
M-CUBED/EXP-1 PRIME 27 Apr 08:19:51 08:24:14 42° 257° (WSW) 08:28:42 437.505
CUBEBUG 2 27 Apr 08:21:34 08:23:33 13° 90° (E) 08:25:33 437.445
STRAND 1 27 Apr 08:23:09 08:28:09 56° 259° (W) 08:33:11 437.568
NUDT-PHONESAT 27 Apr 08:29:38 08:33:04 35° 289° (WNW) 08:36:29 437.300
Tancredo 1 27 Apr 08:31:40 08:34:05 21° 137° (SE) 08:36:32 437.200
XW-2A 27 Apr 08:32:11 08:35:16 34° 98° (E) 08:38:22 145.665 - 145.685
AAUSAT CUBESAT 2 27 Apr 08:37:23 08:39:32 14° 89° (E) 08:41:40 437.432
CUTE 1.7 + AOD 2 27 Apr 08:45:42 08:49:55 52° 99° (E) 08:54:06 437.475
ISS 27 Apr 08:55:59 08:58:50 29° 140° (SE) 09:01:43 437.550
ZACube-1 27 Apr 09:01:50 09:03:49 13° 90° (E) 09:05:48 437.345
SEEDS 27 Apr 09:04:48 09:08:59 55° 100° (E) 09:13:10 437.485
AO-73 27 Apr 09:08:13 09:10:26 14° 90° (E) 09:12:38 145.935
CUTE-I 27 Apr 09:11:09 09:15:30 26° 297° (WNW) 09:19:50 437.470
XW-2D 27 Apr 09:11:21 09:12:39 11° 298° (WNW) 09:13:55 145.860 - 145.880
DOVE 4 27 Apr 09:12:40 09:14:16 12° 303° (WNW) 09:15:51 437.250
SO-50 27 Apr 09:18:39 09:21:48 18° 325° (NW) 09:24:57 436.795
Oscar 11 27 Apr 09:22:45 09:25:37 17° 91° (E) 09:28:27 .
HO-68 27 Apr 09:22:46 09:30:01 89° 105° (ESE) 09:37:14 435.675
FO-29 27 Apr 09:28:46 09:33:02 21° 61° (ENE) 09:37:03 435.910
PRISM 27 Apr 09:35:54 09:39:33 30° 68° (ENE) 09:43:15 437.425
UWE-3 27 Apr 09:42:04 09:46:12 59° 101° (E) 09:50:25 435.000/436.395/437.385
RS-15 27 Apr 09:54:22 10:06:21 59° 316° (NW) 10:18:36 29.354- 29.394
CUBEBUG 2 27 Apr 09:56:28 10:00:33 58° 287° (WNW) 10:04:41 437.445
TIGRISAT 27 Apr 09:57:10 10:00:56 30° 68° (ENE) 10:04:41 435.000
XW-2A 27 Apr 10:05:47 10:07:46 15° 294° (WNW) 10:09:45 145.665 - 145.685
Tancredo 1 27 Apr 10:06:43 10:09:47 57° 335° (NNW) 10:12:51 437.200
AAUSAT CUBESAT 2 27 Apr 10:11:14 10:15:22 57° 286° (WNW) 10:19:28 437.432
UNISAT 6 27 Apr 10:18:01 10:22:16 52° 72° (ENE) 10:26:28 437.425
CUTE 1.7 + AOD 2 27 Apr 10:22:34 10:25:21 17° 297° (WNW) 10:28:08 437.475
O/OREOS (USA 219) 27 Apr 10:24:40 10:28:27 26° 103° (ESE) 10:32:14 437.305
ISS 27 Apr 10:32:02 10:35:13 49° 337° (NNW) 10:38:24 437.550
ZACube-1 27 Apr 10:36:19 10:40:28 61° 286° (WNW) 10:44:42 437.345
SEEDS 27 Apr 10:41:38 10:44:15 16° 297° (WNW) 10:46:52 437.485
AO-73 27 Apr 10:42:52 10:47:00 58° 287° (WNW) 10:51:12 145.935
DELFI C3 27 Apr 10:50:15 10:54:05 41° 98° (E) 10:57:51 145.870
PCSat 27 Apr 10:50:55 10:55:36 28° 44° (NE) 11:00:14 145.827
NANOSAT C BR1 27 Apr 10:55:55 10:55:56 10° 58° (ENE) 10:55:58 145.865
Oscar 11 27 Apr 10:57:49 11:02:01 49° 288° (WNW) 11:06:13 .
PRISM 27 Apr 11:11:23 11:14:50 25° 265° (W) 11:18:20 437.425
FO-29 27 Apr 11:11:30 11:17:45 68° 257° (WSW) 11:23:20 435.910
HO-68 27 Apr 11:11:45 11:16:51 22° 307° (NW) 11:21:58 435.675
UWE-3 27 Apr 11:19:55 11:22:14 15° 297° (WNW) 11:24:33 435.000/436.395/437.385
EO-79 27 Apr 11:20:43 11:23:48 20° 65° (ENE) 11:26:53 145.935-145.965
DUCHIFAT 1 27 Apr 11:22:22 11:25:08 17° 63° (ENE) 11:27:53 145.980
OBJECT BX 27 Apr 11:22:36 11:26:17 77° 102° (ESE) 11:29:57 145.990 - 145.960
TIGRISAT 27 Apr 11:33:52 11:37:37 27° 265° (W) 11:41:19 435.000
Tancredo 1 27 Apr 11:43:30 11:46:06 24° 354° (N) 11:48:43 437.200
AIST 2D 27 Apr 11:45:45 11:49:10 59° 75° (ENE) 11:52:37 435.315
UNISAT 6 27 Apr 11:56:37 11:59:16 16° 269° (W) 12:01:56 437.425
POLYITAN 1 27 Apr 11:59:00 12:03:02 48° 72° (ENE) 12:07:06 437.675
O/OREOS (USA 219) 27 Apr 12:03:24 12:07:41 37° 301° (WNW) 12:12:00 437.305
QB50P2 27 Apr 12:05:31 12:09:40 62° 74° (ENE) 12:13:51 145.880/145.840
ISS 27 Apr 12:09:26 12:12:12 25° 357° (N) 12:14:59 437.550
RS-15 27 Apr 12:11:37 12:22:14 31° 348° (NNW) 12:32:49 29.354- 29.394
BUGSAT 1 27 Apr 12:20:59 12:24:16 23° 66° (ENE) 12:27:33 437.445
LO-87 27 Apr 12:24:25 12:27:58 56° 101° (E) 12:31:26 145.935 - 145.965
DELFI C3 27 Apr 12:25:48 12:28:33 18° 295° (WNW) 12:31:18 145.870
NANOSAT C BR1 27 Apr 12:26:44 12:30:57 88° 65° (ENE) 12:35:10 145.865
ESTCUBE 1 27 Apr 12:26:54 12:31:01 33° 96° (E) 12:35:08 437.505/2401.250
PCSat 27 Apr 12:34:00 12:39:19 56° 244° (WSW) 12:44:35 145.827
VELOX 1 27 Apr 12:38:55 12:40:49 12° 89° (E) 12:42:42 145.980
EO-79 27 Apr 12:55:18 12:59:17 41° 261° (W) 13:03:18 145.935-145.965
Oscar 19 27 Apr 12:55:26 12:59:29 24° 62° (ENE) 13:03:35 437.125/150
DUCHIFAT 1 27 Apr 12:56:23 13:00:27 48° 260° (W) 13:04:31 145.980
Gurwin Techsat 1B 27 Apr 13:03:12 13:06:42 18° 59° (ENE) 13:10:12 435.225
AO-85 27 Apr 13:16:22 13:20:30 52° 121° (ESE) 13:24:28 145.980
Tancredo 1 27 Apr 13:19:49 13:22:37 30° 14° (NNE) 13:25:25 437.200
BEESAT 3 27 Apr 13:25:17 13:26:51 12° 109° (ESE) 13:28:25 437.485
DX 1 27 Apr 13:27:53 13:30:32 16° 91° (E) 13:33:10 434.975-435.025
SPROUT 27 Apr 13:34:33 13:38:38 44° 99° (E) 13:42:41 437.525
POLYITAN 1 27 Apr 13:36:27 13:39:06 16° 269° (W) 13:41:45 437.675
QB50P2 27 Apr 13:43:56 13:45:52 13° 270° (W) 13:47:49 145.880/145.840
ISS 27 Apr 13:46:13 13:49:17 36° 17° (NNE) 13:52:20 437.550
BUGSAT 1 27 Apr 13:55:44 13:59:29 33° 263° (W) 14:03:13 437.445
LO-87 27 Apr 13:59:45 14:00:56 11° 297° (WNW) 14:02:06 145.935 - 145.965
ESTCUBE 1 27 Apr 14:03:52 14:07:43 28° 294° (WNW) 14:11:33 437.505/2401.250
AO-7 27 Apr 14:11:21 14:17:42 25° 50° (NE) 14:24:03 .
VELOX 1 27 Apr 14:13:19 14:17:44 69° 287° (WNW) 14:22:07 145.980
ITAMSAT 1 27 Apr 14:24:05 14:27:07 16° 58° (ENE) 14:30:09 435.822/435.867
SO-50 27 Apr 14:25:42 14:29:19 23° 39° (NE) 14:32:55 436.795
50 SAT 27 Apr 14:26:59 14:30:29 67° 285° (WNW) 14:33:55 437.505
UKube-1 27 Apr 14:28:16 14:32:27 46° 100° (E) 14:36:35 .
RS-15 27 Apr 14:28:20 14:39:27 36° 23° (NNE) 14:50:15 29.354- 29.394
Oscar 19 27 Apr 14:33:29 14:38:29 50° 260° (W) 14:43:33 437.125/150
Gurwin Techsat 1B 27 Apr 14:40:45 14:46:03 73° 257° (WSW) 14:51:24 435.225
Tancredo 1 27 Apr 14:55:37 14:58:43 65° 213° (SSW) 15:01:46 437.200
AO-85 27 Apr 14:57:57 15:01:08 21° 319° (NW) 15:04:14 145.980
BEESAT 3 27 Apr 14:59:55 15:03:52 71° 308° (NW) 15:07:53 437.485
BEESAT 2 27 Apr 15:00:42 15:04:29 46° 119° (ESE) 15:08:22 435.950
DX 1 27 Apr 15:02:47 15:07:03 54° 289° (WNW) 15:11:16 434.975-435.025
SPROUT 27 Apr 15:11:15 15:14:14 19° 296° (WNW) 15:17:12 437.525
YUBILEINY 27 Apr 15:18:05 15:26:09 39° 69° (ENE) 15:34:11 435.215
ISS 27 Apr 15:22:41 15:25:52 49° 216° (SW) 15:29:02 437.550
BEESAT 27 Apr 15:38:59 15:42:47 23° 94° (E) 15:46:35 436.000
ITAMSAT 1 27 Apr 16:00:44 16:05:56 81° 256° (WSW) 16:11:09 435.822/435.867
AO-7 27 Apr 16:01:13 16:09:32 88° 251° (WSW) 16:17:53 .
UKube-1 27 Apr 16:05:05 16:08:09 19° 297° (WNW) 16:11:12 .
SO-50 27 Apr 16:05:41 16:10:07 59° 239° (WSW) 16:14:33 436.795
ITUPSAT 1 27 Apr 16:19:33 16:24:16 56° 101° (E) 16:28:57 437.325
BEESAT 2 27 Apr 16:39:15 16:42:28 23° 319° (NW) 16:45:44 435.950
BEESAT 3 27 Apr 16:40:21 16:42:12 13° 327° (NNW) 16:44:03 437.485
RS-15 27 Apr 16:41:51 16:54:15 79° 52° (NE) 17:06:03 29.354- 29.394
MOZHAYETS 4 27 Apr 17:01:44 17:06:22 78° 101° (ESE) 17:10:59
DOVE 4 27 Apr 17:03:41 17:06:56 17° 61° (ENE) 17:10:10 437.250
KKS-1 27 Apr 17:08:52 17:11:44 17° 92° (E) 17:14:35 437.445
YUBILEINY 27 Apr 17:14:49 17:23:13 52° 271° (W) 17:31:37 435.215
BEESAT 27 Apr 17:16:14 17:20:43 42° 291° (WNW) 17:25:12 436.000
CUTE-I 27 Apr 17:17:28 17:20:22 15° 57° (ENE) 17:23:16 437.470
XW-2F 27 Apr 17:30:36 17:31:46 11° 62° (ENE) 17:32:56 145.980 - 146.000
STARS 27 Apr 17:38:23 17:40:53 15° 91° (E) 17:43:21 437.465
NUDT-PHONESAT 27 Apr 17:39:16 17:40:28 11° 62° (ENE) 17:41:39 437.300
ITAMSAT 1 27 Apr 17:45:23 17:46:11 10° 273° (W) 17:47:00 435.822/435.867
CUBESAT XI-V 27 Apr 17:55:04 17:59:41 50° 99° (E) 18:04:16 437.345
AO-7 27 Apr 17:57:51 18:03:23 19° 270° (W) 18:08:59 .
ITUPSAT 1 27 Apr 17:58:19 18:01:41 19° 298° (WNW) 18:05:03 437.325
HO-68 27 Apr 18:08:42 18:13:20 19° 51° (NE) 18:17:59 435.675
XW-2D 27 Apr 18:18:11 18:21:41 39° 72° (ENE) 18:25:13 145.860 - 145.880
XW-2B 27 Apr 18:25:03 18:28:38 46° 73° (ENE) 18:32:15 145.730 - 145.750
KAITUO 1B 27 Apr 18:32:25 18:35:56 45° 73° (ENE) 18:39:30 145.475/437.950
XW-2C 27 Apr 18:36:52 18:40:35 66° 75° (ENE) 18:44:19 145.795 - 145.815
LilacSat-2 27 Apr 18:36:59 18:40:43 70° 75° (ENE) 18:44:30 437.200
DOVE 4 27 Apr 18:38:42 18:44:01 78° 258° (WSW) 18:49:14 437.250
MOZHAYETS 4 27 Apr 18:40:39 18:42:55 14° 300° (WNW) 18:45:11
KKS-1 27 Apr 18:44:17 18:48:36 51° 289° (WNW) 18:52:52 437.445
CUTE-I 27 Apr 18:54:19 18:59:40 89° 284° (WNW) 19:05:03 437.470
O/OREOS (USA 219) 27 Apr 18:54:50 18:56:04 11° 44° (NE) 18:57:18 437.305
RS-15 27 Apr 18:55:22 19:05:34 34° 256° (WSW) 19:15:25 29.354- 29.394
XW-2F 27 Apr 19:01:42 19:05:23 63° 259° (WSW) 19:09:06 145.980 - 146.000
NO-84 27 Apr 19:01:50 19:03:11 12° 127° (SE) 19:04:29 435.350 FM
XW-2A 27 Apr 19:06:08 19:08:21 17° 66° (ENE) 19:10:35 145.665 - 145.685
NUDT-PHONESAT 27 Apr 19:10:16 19:13:53 60° 259° (WSW) 19:17:32 437.300
STARS 27 Apr 19:13:17 19:17:35 57° 288° (WNW) 19:21:51 437.465
CUBEBUG 2 27 Apr 19:21:38 19:24:10 15° 63° (ENE) 19:26:40 437.445
AAUSAT CUBESAT 2 27 Apr 19:30:04 19:31:53 13° 61° (ENE) 19:33:43 437.432
CUBESAT XI-V 27 Apr 19:33:15 19:36:42 20° 297° (WNW) 19:40:08 437.345
CUTE 1.7 + AOD 2 27 Apr 19:39:58 19:43:59 46° 72° (ENE) 19:48:04 437.475
HO-68 27 Apr 19:52:52 20:00:01 81° 71° (ENE) 20:07:13 435.675
XW-2D 27 Apr 19:53:48 19:56:04 15° 268° (W) 19:58:22 145.860 - 145.880
SEEDS 27 Apr 19:58:02 20:02:02 47° 72° (ENE) 20:06:06 437.485
M-CUBED/EXP-1 PRIME 27 Apr 19:59:38 20:00:24 10° 92° (E) 20:01:08 437.505
ZACube-1 27 Apr 19:59:59 20:02:05 14° 62° (ENE) 20:04:10 437.345
XW-2B 27 Apr 20:01:14 20:03:06 13° 269° (W) 20:04:59 145.730 - 145.750
AO-73 27 Apr 20:06:06 20:08:19 14° 62° (ENE) 20:10:32 145.935
AO-85 27 Apr 20:06:22 20:08:18 13° 34° (NE) 20:10:14 145.980
KAITUO 1B 27 Apr 20:08:22 20:10:13 13° 270° (W) 20:12:04 145.475/437.950
Oscar 11 27 Apr 20:19:41 20:22:32 18° 63° (ENE) 20:25:24 .
DOVE 4 27 Apr 20:21:33 20:22:26 10° 275° (W) 20:23:18 437.250
STRAND 1 27 Apr 20:31:30 20:36:21 42° 98° (E) 20:41:10 437.568
O/OREOS (USA 219) 27 Apr 20:31:48 20:36:25 69° 65° (ENE) 20:40:56 437.305
NO-84 27 Apr 20:36:39 20:40:20 84° 146° (SSE) 20:43:42 435.350 FM
XW-2A 27 Apr 20:37:55 20:40:54 29° 263° (W) 20:43:54 145.665 - 145.685
CUTE-I 27 Apr 20:38:18 20:40:27 12° 273° (W) 20:42:35 437.470
UWE-3 27 Apr 20:40:42 20:44:53 60° 74° (ENE) 20:49:00 435.000/436.395/437.385
CUBEBUG 2 27 Apr 20:56:06 21:00:23 57° 260° (W) 21:04:34 437.445
AAUSAT CUBESAT 2 27 Apr 21:02:39 21:06:47 70° 258° (WSW) 21:10:58 437.432
CUTE 1.7 + AOD 2 27 Apr 21:17:16 21:20:04 17° 269° (W) 21:22:53 437.475
M-CUBED/EXP-1 PRIME 27 Apr 21:31:13 21:35:27 73° 290° (WNW) 21:39:19 437.505
ZACube-1 27 Apr 21:33:45 21:37:53 62° 259° (WSW) 21:42:01 437.345
SEEDS 27 Apr 21:35:17 21:37:59 17° 269° (W) 21:40:42 437.485
DELFI C3 27 Apr 21:37:27 21:40:59 31° 69° (ENE) 21:44:32 145.870
BEESAT 3 27 Apr 21:38:03 21:40:56 19° 39° (NE) 21:43:49 437.485
AO-73 27 Apr 21:40:00 21:44:06 59° 259° (W) 21:48:12 145.935
BEESAT 2 27 Apr 21:40:31 21:41:42 11° 30° (NNE) 21:42:52 435.950
HO-68 27 Apr 21:43:26 21:48:31 20° 270° (W) 21:53:37 435.675
AO-85 27 Apr 21:45:21 21:49:20 79° 56° (NE) 21:53:26 145.980
Oscar 11 27 Apr 21:54:06 21:58:17 50° 261° (W) 22:02:30 .
OBJECT BX 27 Apr 22:02:06 22:05:32 42° 72° (ENE) 22:09:00 145.990 - 145.960
STRAND 1 27 Apr 22:11:05 22:15:20 27° 296° (WNW) 22:19:34 437.568
O/OREOS (USA 219) 27 Apr 22:13:01 22:15:11 13° 262° (W) 22:17:21 437.305
NO-84 27 Apr 22:15:26 22:18:11 22° 340° (NNW) 22:20:45 435.350 FM
UWE-3 27 Apr 22:19:43 22:21:43 13° 270° (W) 22:23:42 435.000/436.395/437.385
FO-29 27 Apr 22:20:53 22:22:10 11° 88° (E) 22:23:29 435.910
PRISM 27 Apr 22:49:57 22:53:48 36° 98° (E) 22:57:36 437.425
LO-87 27 Apr 23:02:20 23:05:33 30° 70° (ENE) 23:08:47 145.935 - 145.965
DELFI C3 27 Apr 23:12:37 23:15:47 22° 266° (W) 23:19:00 145.870
BEESAT 3 27 Apr 23:14:55 23:18:56 64° 238° (WSW) 23:22:52 437.485
BEESAT 2 27 Apr 23:16:22 23:20:22 54° 51° (NE) 23:24:20 435.950
TIGRISAT 27 Apr 23:22:16 23:26:26 48° 99° (E) 23:30:38 435.000
ESTCUBE 1 27 Apr 23:28:05 23:32:15 38° 69° (ENE) 23:36:27 437.505/2401.250
AO-85 27 Apr 23:28:13 23:29:09 11° 250° (WSW) 23:30:05 145.980
OBJECT BX 27 Apr 23:37:31 23:39:27 14° 269° (W) 23:41:23 145.990 - 145.960
VELOX 1 27 Apr 23:37:48 23:40:29 16° 61° (ENE) 23:43:11 145.980
UNISAT 6 27 Apr 23:43:48 23:48:07 90° 101° (E) 23:52:28 437.425
NO-84 27 Apr 23:54:54 23:56:37 14° 1° (N) 23:58:16 435.350 FM
FO-29 28 Apr 00:02:47 00:08:01 87° 102° (ESE) 00:13:34 435.910
NANOSAT C BR1 28 Apr 00:10:54 00:12:32 12° 89° (E) 00:14:10 145.865
DX 1 28 Apr 00:25:11 00:28:16 19° 63° (ENE) 00:31:21 434.975-435.025
PRISM 28 Apr 00:25:40 00:28:52 22° 295° (WNW) 00:32:03 437.425
SPROUT 28 Apr 00:29:29 00:33:32 43° 71° (ENE) 00:37:36 437.525
LO-87 28 Apr 00:36:24 00:39:03 19° 267° (W) 00:41:43 145.935 - 145.965
EO-79 28 Apr 00:37:57 00:41:30 26° 95° (E) 00:45:01 145.935-145.965
DUCHIFAT 1 28 Apr 00:38:41 00:41:56 22° 94° (E) 00:45:10 145.980
AIST 2D 28 Apr 00:41:50 00:45:19 55° 100° (E) 00:48:47 435.315
BEESAT 2 28 Apr 00:55:07 00:57:44 17° 249° (WSW) 01:00:20 435.950
TIGRISAT 28 Apr 00:59:55 01:02:47 18° 297° (WNW) 01:05:41 435.000
50 SAT 28 Apr 01:01:11 01:04:36 58° 74° (ENE) 01:08:04 437.505
ESTCUBE 1 28 Apr 01:05:34 01:09:10 23° 267° (W) 01:12:48 437.505/2401.250
VELOX 1 28 Apr 01:12:02 01:16:27 62° 258° (WSW) 01:20:54 145.980
POLYITAN 1 28 Apr 01:17:09 01:21:21 69° 102° (ESE) 01:25:32 437.675
UNISAT 6 28 Apr 01:23:18 01:24:09 11° 301° (WNW) 01:25:01 437.425
QB50P2 28 Apr 01:23:50 01:28:04 89° 112° (ESE) 01:32:17 145.880/145.840
UKube-1 28 Apr 01:24:15 01:28:26 50° 71° (ENE) 01:32:39 .
NO-84 28 Apr 01:32:26 01:35:00 24° 23° (NNE) 01:37:28 435.350 FM
BUGSAT 1 28 Apr 01:35:13 01:38:42 28° 96° (E) 01:42:08 437.445
PCSat 28 Apr 01:37:15 01:39:52 14° 103° (ESE) 01:42:30 145.827
NANOSAT C BR1 28 Apr 01:44:32 01:48:41 65° 287° (WNW) 01:52:49 145.865
FO-29 28 Apr 01:49:54 01:52:29 14° 303° (WNW) 01:55:06 435.910
ITUPSAT 1 28 Apr 01:54:15 01:55:43 11° 56° (NE) 01:57:11 437.325
DX 1 28 Apr 01:59:51 02:04:06 48° 260° (W) 02:08:22 434.975-435.025
SPROUT 28 Apr 02:06:39 02:09:38 18° 268° (W) 02:12:39 437.525
EO-79 28 Apr 02:13:35 02:17:15 30° 292° (WNW) 02:20:55 145.935-145.965
DUCHIFAT 1 28 Apr 02:13:53 02:17:42 35° 291° (WNW) 02:21:30 145.980
AIST 2D 28 Apr 02:16:59 02:18:05 11° 297° (WNW) 02:19:10 435.315
MOZHAYETS 4 28 Apr 02:31:42 02:33:20 12° 58° (ENE) 02:34:59
Oscar 19 28 Apr 02:42:46 02:47:51 49° 100° (E) 02:52:52 437.125/150
BEESAT 28 Apr 02:47:03 02:51:18 34° 67° (ENE) 02:55:35 436.000
POLYITAN 1 28 Apr 02:54:40 02:56:35 13° 299° (WNW) 02:58:30 437.675
Gurwin Techsat 1B 28 Apr 02:55:03 03:00:01 38° 97° (E) 03:04:56 435.225
UKube-1 28 Apr 03:01:59 03:04:45 17° 268° (W) 03:07:32 .
QB50P2 28 Apr 03:02:27 03:03:10 10° 301° (WNW) 03:03:54 145.880/145.840
NO-84 28 Apr 03:09:49 03:12:37 42° 223° (SW) 03:15:20 435.350 FM
BUGSAT 1 28 Apr 03:10:38 03:13:59 26° 293° (WNW) 03:17:18 437.445
PCSat 28 Apr 03:17:02 03:22:27 90° 302° (WNW) 03:27:56 145.827
ITUPSAT 1 28 Apr 03:28:00 03:32:45 81° 76° (ENE) 03:37:32 437.325
AO-7 28 Apr 04:01:14 04:08:03 27° 94° (E) 04:14:51 .
MOZHAYETS 4 28 Apr 04:05:14 04:09:47 89° 255° (WSW) 04:14:23
KKS-1 28 Apr 04:08:37 04:11:59 21° 64° (ENE) 04:15:21 437.445
ITAMSAT 1 28 Apr 04:11:52 04:16:24 30° 96° (E) 04:20:54 435.822/435.867
YUBILEINY 28 Apr 04:21:53 04:29:44 40° 86° (E) 04:37:37 435.215
Oscar 19 28 Apr 04:22:43 04:26:51 25° 298° (WNW) 04:30:59 437.125/150
BEESAT 28 Apr 04:24:59 04:29:05 29° 264° (W) 04:33:14 436.000
Gurwin Techsat 1B 28 Apr 04:35:12 04:39:51 31° 295° (WNW) 04:44:28 435.225
STARS 28 Apr 04:36:43 04:39:45 19° 62° (ENE) 04:42:48 437.465
CUBESAT XI-V 28 Apr 04:59:56 05:04:30 61° 73° (ENE) 05:09:09 437.345
PCSat 28 Apr 05:02:42 05:06:37 20° 322° (NW) 05:10:34 145.827
ITUPSAT 1 28 Apr 05:09:25 05:11:11 12° 272° (W) 05:12:56 437.325
